Location: Eaton
(41.3139°N, 82.0207°W)
Time: 13:05:49
(UTC+00:00)

NPP - Pass Details

Date: 17 June 2021
Orbit: 826 x 828 km, 98.7° (Epoch: 27 July)

Event Time Altitude Azimuth Distance (km) Brightness Sun altitude
Rises 07:27:24 0° 11° (N) 3,376 8.2 -19.7°
Reaches altitude 10° 07:29:46 10° 10° (N) 2,439 7.1 -19.5°
Maximum altitude 07:35:09 72° 287° (WNW) 868 3.7 -19.0°
Enters shadow 07:37:31 34° 210° (SSW) 1,328 4.2 -18.8°
